• Em Portugal
  • Lista de países
  • Para 7 dias
  • Temperatura da água
  • Mapas de satélite
  • Mapa do tempo
  • Widgets de tempo
  • user-avatar
    Iniciar Sessão

    Previsão horária em Trypolis

    Hoje, 23 Maio, Quarta-feira

    Tempo Temperatura Precipitação Vento Pressão Humidade
    00:00 +30°C° 0 mm 2 m/s 757 mmHg 31%
    01:00 +30°C° 0 mm 2 m/s 757 mmHg 31%
    02:00 +30°C° 0 mm 2 m/s 757 mmHg 31%
    03:00 +29°C° 0 mm 2 m/s 757 mmHg 34%
    04:00 +29°C° 0 mm 2 m/s 757 mmHg 37%
    05:00 +28°C° 0 mm 2 m/s 757 mmHg 40%
    06:00 +30°C° 0 mm 2 m/s 757 mmHg 36%
    07:00 +31°C° 0 mm 2 m/s 757 mmHg 32%
    08:00 +34°C° 0 mm 3 m/s 757 mmHg 29%
    09:00 +35°C° 0 mm 3 m/s 757 mmHg 28%
    10:00 +35°C° 0 mm 4 m/s 757 mmHg 28%
    11:00 +35°C° 0 mm 4 m/s 758 mmHg 27%
    12:00 +35°C° 0 mm 4 m/s 757 mmHg 29%
    13:00 +35°C° 0 mm 4 m/s 757 mmHg 31%
    14:00 +34°C° 0 mm 5 m/s 757 mmHg 38%
    15:00 +33°C° 0 mm 5 m/s 757 mmHg 41%
    16:00 +33°C° 0 mm 5 m/s 757 mmHg 43%
    17:00 +32°C° 0 mm 5 m/s 757 mmHg 46%
    18:00 +30°C° 0 mm 4 m/s 757 mmHg 53%
    19:00 +29°C° 0 mm 4 m/s 757 mmHg 59%
    20:00 +28°C° 0 mm 3 m/s 758 mmHg 66%
    21:00 +28°C° 0 mm 3 m/s 758 mmHg 66%
    22:00 +27°C° 0 mm 3 m/s 758 mmHg 66%
    23:00 +27°C° 0 mm 3 m/s 758 mmHg 65%

    Amanhã, 24 Maio, Quinta-feira

    Tempo Temperatura Precipitação Vento Pressão Humidade
    00:00 +27°C° 0 mm 3 m/s 758 mmHg 63%
    01:00 +26°C° 0 mm 3 m/s 758 mmHg 62%
    02:00 +26°C° 0 mm 3 m/s 757 mmHg 60%
    03:00 +26°C° 0 mm 3 m/s 757 mmHg 57%
    04:00 +26°C° 0 mm 2 m/s 757 mmHg 55%
    05:00 +26°C° 0 mm 2 m/s 757 mmHg 53%
    06:00 +28°C° 0 mm 3 m/s 757 mmHg 48%
    07:00 +29°C° 0 mm 3 m/s 757 mmHg 44%
    08:00 +32°C° 0 mm 4 m/s 757 mmHg 40%
    09:00 +32°C° 0 mm 4 m/s 757 mmHg 40%
    10:00 +33°C° 0 mm 4 m/s 757 mmHg 40%
    11:00 +34°C° 0 mm 5 m/s 757 mmHg 41%
    12:00 +34°C° 0 mm 5 m/s 757 mmHg 42%
    13:00 +34°C° 0 mm 5 m/s 756 mmHg 43%
    14:00 +34°C° 0 mm 5 m/s 756 mmHg 44%
    15:00 +33°C° 0 mm 5 m/s 756 mmHg 45%
    16:00 +33°C° 0 mm 4 m/s 755 mmHg 46%
    17:00 +32°C° 0 mm 4 m/s 755 mmHg 48%
    18:00 +30°C° 0 mm 4 m/s 755 mmHg 52%
    19:00 +29°C° 0 mm 4 m/s 755 mmHg 56%
    20:00 +28°C° 0 mm 3 m/s 756 mmHg 60%
    21:00 +28°C° 0 mm 3 m/s 756 mmHg 60%
    22:00 +28°C° 0 mm 4 m/s 756 mmHg 60%
    23:00 +27°C° 0 mm 4 m/s 756 mmHg 59%

    Depois de amanhã, 25 Maio, Sexta-feira

    Tempo Temperatura Precipitação Vento Pressão Humidade
    00:00 +27°C° 0 mm 3 m/s 756 mmHg 55%
    01:00 +27°C° 0 mm 3 m/s 755 mmHg 51%
    02:00 +27°C° 0 mm 3 m/s 755 mmHg 47%
    03:00 +27°C° 0 mm 3 m/s 755 mmHg 46%
    04:00 +27°C° 0 mm 3 m/s 755 mmHg 45%
    05:00 +27°C° 0 mm 3 m/s 755 mmHg 44%
    06:00 +28°C° 0 mm 4 m/s 755 mmHg 44%
    07:00 +29°C° 0 mm 4 m/s 755 mmHg 43%
    08:00 +32°C° 0 mm 5 m/s 755 mmHg 42%
    09:00 +33°C° 0 mm 5 m/s 755 mmHg 41%
    10:00 +33°C° 0 mm 5 m/s 755 mmHg 40%
    11:00 +34°C° 0 mm 5 m/s 755 mmHg 39%
    12:00 +34°C° 0 mm 5 m/s 755 mmHg 39%
    13:00 +34°C° 0 mm 5 m/s 755 mmHg 39%
    14:00 +34°C° 0 mm 5 m/s 755 mmHg 40%
    15:00 +33°C° 0,1 mm 5 m/s 754 mmHg 43%
    16:00 +33°C° 0,1 mm 4 m/s 754 mmHg 46%
    17:00 +32°C° 0,1 mm 4 m/s 754 mmHg 49%
    18:00 +30°C° 0 mm 3 m/s 755 mmHg 53%
    19:00 +29°C° 0 mm 3 m/s 755 mmHg 57%
    20:00 +28°C° 0 mm 2 m/s 755 mmHg 62%
    21:00 +28°C° 0 mm 2 m/s 755 mmHg 61%
    22:00 +27°C° 0 mm 1 m/s 755 mmHg 60%
    23:00 +27°C° 0 mm 1 m/s 755 mmHg 59%

    26 Maio, Sábado

    Tempo Temperatura Precipitação Vento Pressão Humidade
    00:00 +27°C° 0 mm 1 m/s 755 mmHg 57%
    01:00 +27°C° 0 mm 1 m/s 755 mmHg 56%
    02:00 +27°C° 0 mm 1 m/s 754 mmHg 54%
    03:00 +26°C° 0 mm 1 m/s 754 mmHg 55%
    04:00 +26°C° 0 mm 1 m/s 755 mmHg 55%
    05:00 +26°C° 0 mm 1 m/s 755 mmHg 56%
    06:00 +28°C° 0 mm 1 m/s 755 mmHg 52%
    07:00 +29°C° 0 mm 2 m/s 755 mmHg 48%
    08:00 +31°C° 0 mm 2 m/s 755 mmHg 44%
    09:00 +31°C° 0 mm 3 m/s 755 mmHg 42%
    10:00 +33°C° 0 mm 3 m/s 755 mmHg 40%
    11:00 +34°C° 0 mm 3 m/s 755 mmHg 38%
    12:00 +34°C° 0,1 mm 3 m/s 755 mmHg 39%
    13:00 +34°C° 0,1 mm 4 m/s 755 mmHg 40%
    14:00 +34°C° 0,1 mm 4 m/s 755 mmHg 42%
    15:00 +34°C° 0 mm 3 m/s 754 mmHg 44%
    16:00 +33°C° 0 mm 3 m/s 754 mmHg 45%
    17:00 +31°C° 0 mm 2 m/s 754 mmHg 47%
    18:00 +31°C° 0 mm 2 m/s 755 mmHg 51%
    19:00 +30°C° 0 mm 1 m/s 755 mmHg 55%
    20:00 +29°C° 0 mm 1 m/s 755 mmHg 59%
    21:00 +28°C° 0 mm 1 m/s 756 mmHg 59%
    22:00 +28°C° 0 mm 1 m/s 756 mmHg 58%
    23:00 +28°C° 0 mm 1 m/s 756 mmHg 58%

    27 Maio, Domingo

    Tempo Temperatura Precipitação Vento Pressão Humidade
    00:00 +27°C° 0 mm 1 m/s 756 mmHg 59%
    01:00 +27°C° 0 mm 1 m/s 756 mmHg 59%
    02:00 +26°C° 0 mm 1 m/s 756 mmHg 60%
    03:00 +26°C° 0 mm 1 m/s 756 mmHg 59%
    04:00 +26°C° 0 mm 1 m/s 756 mmHg 59%
    05:00 +26°C° 0 mm 1 m/s 756 mmHg 58%
    06:00 +28°C° 0 mm 1 m/s 756 mmHg 51%
    07:00 +30°C° 0 mm 2 m/s 757 mmHg 43%
    08:00 +32°C° 0 mm 2 m/s 757 mmHg 35%
    09:00 +34°C° 0 mm 3 m/s 757 mmHg 33%
    10:00 +35°C° 0 mm 3 m/s 756 mmHg 31%
    11:00 +36°C° 0 mm 4 m/s 756 mmHg 29%
    12:00 +36°C° 0 mm 4 m/s 756 mmHg 31%
    13:00 +36°C° 0 mm 4 m/s 756 mmHg 33%
    14:00 +36°C° 0 mm 4 m/s 756 mmHg 36%
    15:00 +34°C° 0,1 mm 3 m/s 756 mmHg 40%
    16:00 +33°C° 0,1 mm 3 m/s 756 mmHg 44%
    17:00 +31°C° 0,1 mm 2 m/s 757 mmHg 49%
    18:00 +31°C° 0,1 mm 2 m/s 757 mmHg 49%
    19:00 +31°C° 0,1 mm 2 m/s 757 mmHg 49%
    20:00 +30°C° 0,1 mm 3 m/s 757 mmHg 50%
    21:00 +30°C° 0,1 mm 3 m/s 757 mmHg 48%
    22:00 +30°C° 0,1 mm 3 m/s 757 mmHg 46%
    23:00 +31°C° 0,1 mm 3 m/s 757 mmHg 44%

    28 Maio, Segunda-feira

    Tempo Temperatura Precipitação Vento Pressão Humidade
    00:00 +30°C° 0,1 mm 3 m/s 756 mmHg 44%
    01:00 +30°C° 0,1 mm 3 m/s 756 mmHg 43%
    02:00 +30°C° 0,1 mm 4 m/s 755 mmHg 43%
    03:00 +30°C° 0 mm 4 m/s 755 mmHg 43%
    04:00 +30°C° 0 mm 3 m/s 755 mmHg 42%
    05:00 +30°C° 0 mm 3 m/s 755 mmHg 42%
    06:00 +32°C° 0 mm 4 m/s 755 mmHg 40%
    07:00 +33°C° 0 mm 4 m/s 755 mmHg 37%
    08:00 +34°C° 0 mm 4 m/s 755 mmHg 35%
    09:00 +35°C° 0 mm 4 m/s 755 mmHg 32%
    10:00 +36°C° 0 mm 4 m/s 755 mmHg 29%
    11:00 +38°C° 0 mm 3 m/s 755 mmHg 26%
    12:00 +37°C° 0,1 mm 3 m/s 754 mmHg 28%
    13:00 +36°C° 0,1 mm 3 m/s 754 mmHg 29%
    14:00 +36°C° 0,1 mm 2 m/s 754 mmHg 31%
    15:00 +36°C° 0 mm 2 m/s 754 mmHg 32%
    16:00 +35°C° 0 mm 2 m/s 754 mmHg 33%
    17:00 +35°C° 0 mm 2 m/s 754 mmHg 34%
    18:00 +34°C° 0 mm 2 m/s 754 mmHg 36%
    19:00 +32°C° 0 mm 2 m/s 754 mmHg 38%
    20:00 +31°C° 0 mm 2 m/s 754 mmHg 40%
    21:00 +31°C° 0 mm 2 m/s 754 mmHg 40%
    22:00 +31°C° 0 mm 2 m/s 754 mmHg 41%
    23:00 +31°C° 0 mm 2 m/s 753 mmHg 41%
    Mostrar mais